Location: Byszew
(52.1813°N, 19.2693°E)
Time: 21:35:50
(UTC+00:00)

Cosmos 1862 Rocket - Pass Details

Date: 03 March 2021
Orbit: 603 x 634 km, 82.5° (Epoch: 15 April)

Event Time Altitude Azimuth Distance (km) Brightness Sun altitude
Rises 17:20:32 0° 348° (NNW) 2,946 7.2 -9.1°
Reaches altitude 10° 17:22:47 10° 348° (NNW) 2,034 6.4 -9.5°
Maximum altitude 17:27:18 85° 262° (W) 645 3.7 -10.1°
Drops below altitude 10° 17:31:47 10° 173° (S) 2,013 6.1 -10.8°
Sets 17:34:00 0° 173° (S) 2,913 6.9 -11.2°
